Weather History for KISP - August, 2012

Change the Weather History Date:

Friday, August 10, 2012

  Actual Average Record
Temperature  
Mean Temperature 77 °F 74 °F  
Max Temperature 82 °F 81 °F 91 °F (2009)
Min Temperature 72 °F 66 °F 55 °F (1989)
Degree Days  
Heating Degree Days 0 0  
Month to date heating degree days 0 0  
Since 1 June heating degree days 25 40  
Since 1 July heating degree days 0 2  
Cooling Degree Days 12 9  
Month to date cooling degree days 122 90  
Year to date cooling degree days 694 530  
Since 1 June cooling degree days 632 506  
Growing Degree Days 26 (Base 50)    
Moisture  
Dew Point 73 °F    
Average Humidity 85    
Maximum Humidity 91    
Minimum Humidity 79    
Precipitation  
Precipitation 1.64 in 0.13 in 1.64 in (2012)
Month to date precipitation 2.39 1.27  
Year to date precipitation 28.51 28.43  
Snow  
Snow 0.00 in 0.00 in - ()
Month to date snowfall 0.0 0.0  
Since 1 July snowfall 0.0 0.0  
Snow Depth 0.00 in    
Sea Level Pressure  
Sea Level Pressure 29.81 in    
Wind  
Wind Speed 11 mph (South)    
Max Wind Speed 28 mph    
Max Gust Speed 44 mph    
Visibility 8 miles    
Events Fog , Rain , Thunderstorm    
T = Trace of Precipitation, MM = Missing Value Source: NWS Daily Summary

Daily Weather History Graph

Daily Weather History Graph

Search for Another Location

Airport or City:

Trip Planner

Search our weather history database for the weather conditions in past years. The results will help you decide how hot, cold, wet, or windy it might be!

Date:

Astronomy

Aug. 10, 2012 Rise Set
Actual Time 5:58 AM EDT 7:56 PM EDT
Civil Twilight 5:28 AM EDT 8:26 PM EDT
Nautical Twilight 4:51 AM EDT 9:02 PM EDT
Astronomical Twilight 4:12 AM EDT 9:41 PM EDT
Moon No Moon Rise 2:35 PM EDT (8/10)
Length of Visible Light 14h 58m
Length of Day
13h 58m
Last Quarter, 42% of the Moon is Illuminated
Aug 10
Last Quarter
Aug 17
New
Aug 24
First Quarter
Aug 31
Full
Sep 8
Last Quarter

Hourly Weather History & Observations

Time (EDT) Temp. Heat Index Dew Point Humidity Pressure Visibility Wind Dir Wind Speed Gust Speed Precip Events Conditions
12:56 AM 78.1 °F - 73.9 °F 87% 29.89 in 8.0 mi South 5.8 mph - N/A   Overcast
1:56 AM 78.1 °F - 73.9 °F 87% 29.88 in 9.0 mi South 8.1 mph - N/A   Overcast
2:25 AM 78.8 °F - 73.4 °F 83% 29.87 in 9.0 mi South 9.2 mph - N/A   Overcast
2:56 AM 78.1 °F - 75.0 °F 90% 29.87 in 9.0 mi South 9.2 mph - N/A   Overcast
3:56 AM 78.1 °F - 73.9 °F 87% 29.86 in 8.0 mi South 8.1 mph - N/A   Overcast
4:56 AM 78.1 °F - 73.9 °F 87% 29.85 in 8.0 mi South 10.4 mph - N/A   Overcast
5:56 AM 77.0 °F - 73.9 °F 90% 29.86 in 10.0 mi South 8.1 mph - N/A   Mostly Cloudy
6:56 AM 78.8 °F - 75.2 °F 89% 29.86 in 10.0 mi South 9.2 mph - N/A   Mostly Cloudy
7:23 AM 78.8 °F - 75.2 °F 89% 29.86 in 10.0 mi South 11.5 mph - N/A   Mostly Cloudy
7:56 AM 78.8 °F - 75.2 °F 89% 29.85 in 10.0 mi SSE 15.0 mph - N/A   Overcast
8:56 AM 80.1 °F 84.5 °F 73.9 °F 81% 29.86 in 10.0 mi South 11.5 mph - N/A   Overcast
9:56 AM 80.6 °F 85.4 °F 73.4 °F 79% 29.86 in 10.0 mi SSE 10.4 mph - N/A   Overcast
10:56 AM 81.0 °F 86.2 °F 73.9 °F 79% 29.84 in 10.0 mi SSE 17.3 mph - N/A   Overcast
11:56 AM 80.1 °F 84.5 °F 73.9 °F 81% 29.83 in 10.0 mi SSE 17.3 mph - N/A   Overcast
12:25 PM 78.8 °F - 73.4 °F 83% 29.82 in 10.0 mi SE 17.3 mph - N/A   Overcast
12:56 PM 78.1 °F - 75.0 °F 90% 29.80 in 6.0 mi SE 17.3 mph 20.7 mph 0.01 in Rain Light Rain
1:14 PM 77.0 °F - 75.2 °F 94% 29.79 in 2.5 mi SE 15.0 mph - 0.03 in Rain , Thunderstorm Thunderstorms and Rain
1:56 PM 75.0 °F - 73.0 °F 94% 29.77 in 0.2 mi ESE 15.0 mph 36.8 mph 0.44 in Fog , Rain , Thunderstorm Heavy Thunderstorms and Rain
2:18 PM 71.6 °F - 69.8 °F 94% 29.78 in 1.0 mi South 12.7 mph 43.7 mph 0.96 in Rain Heavy Rain
2:52 PM 73.4 °F - 71.6 °F 94% 29.77 in 5.0 mi SSW 11.5 mph - 1.19 in Rain Light Rain
2:56 PM 73.9 °F - 72.0 °F 93% 29.76 in 5.0 mi SSW 9.2 mph - 1.19 in   Overcast
3:50 PM 77.0 °F - 71.6 °F 83% 29.76 in 10.0 mi SW 13.8 mph - N/A   Overcast
3:56 PM 77.0 °F - 72.0 °F 84% 29.75 in 10.0 mi SSW 12.7 mph - N/A   Overcast
4:56 PM 79.0 °F - 72.0 °F 79% 29.75 in 10.0 mi South 10.4 mph 20.7 mph N/A   Mostly Cloudy
5:41 PM 78.8 °F - 71.6 °F 78% 29.76 in 10.0 mi SSW 11.5 mph - N/A   Mostly Cloudy
5:56 PM 78.1 °F - 72.0 °F 81% 29.75 in 10.0 mi SW 9.2 mph - N/A   Mostly Cloudy
6:56 PM 78.1 °F - 72.0 °F 81% 29.76 in 10.0 mi SSW 12.7 mph - N/A   Mostly Cloudy
7:56 PM 78.1 °F - 73.0 °F 84% 29.78 in 10.0 mi SSW 8.1 mph - N/A   Overcast
8:56 PM 78.1 °F - 73.0 °F 84% 29.79 in 10.0 mi SSW 10.4 mph - N/A   Overcast
9:21 PM 78.8 °F - 73.4 °F 83% 29.79 in 10.0 mi SW 10.4 mph - N/A   Overcast
9:56 PM 78.1 °F - 73.9 °F 87% 29.79 in 10.0 mi SW 10.4 mph - N/A   Overcast
10:56 PM 78.1 °F - 75.0 °F 90% 29.79 in 10.0 mi SW 8.1 mph - N/A   Overcast
11:56 PM 78.1 °F - 75.0 °F 90% 29.79 in 10.0 mi SW 8.1 mph - N/A   Overcast